Pocatello, ID

6:53 PM MST on December 15, 2017 (GMT -0700)
Pocatello Regional

Weather History for KPIH - March, 2013

Change the Weather History Date:

Saturday, March 30, 2013

  Actual Average Record
Temperature  
Mean Temperature 49 °F 42 °F  
Max Temperature 63 °F 54 °F 73 °F (2004)
Min Temperature 34 °F 30 °F 16 °F (1954)
Degree Days  
Heating Degree Days 16 23  
Month to date heating degree days 773 815  
Since 1 July heating degree days 5884 6088  
Cooling Degree Days 0 0  
Month to date cooling degree days 0 0  
Year to date cooling degree days 0 0  
Moisture  
Dew Point 28 °F    
Average Humidity 54    
Maximum Humidity 82    
Minimum Humidity 25    
Precipitation  
Precipitation 0.00 in 0.04 in 0.82 in (2014)
Month to date precipitation 0.72 1.22  
Year to date precipitation 1.80 3.18  
Snow  
Snow 0.00 in - - ()
Month to date snowfall 1.1  
Since 1 July snowfall 34.7  
Snow Depth 0.00 in    
Sea Level Pressure  
Sea Level Pressure 30.17 in    
Wind  
Wind Speed 4 mph (SW)    
Max Wind Speed 14 mph    
Max Gust Speed 16 mph    
Visibility 10 miles    
Events      
T = Trace of Precipitation, MM = Missing Value Source: NWS Daily Summary

Daily Weather History Graph

Daily Weather History Graph

Search for Another Location

Airport or City:

Trip Planner

Search our weather history database for the weather conditions in past years. The results will help you decide how hot, cold, wet, or windy it might be!

Date:

Astronomy

Mar. 30, 2013 Rise Set
Actual Time 7:15 AM MDT 7:54 PM MDT
Civil Twilight 6:46 AM MDT 8:23 PM MDT
Nautical Twilight 6:13 AM MDT 8:57 PM MDT
Astronomical Twilight 5:38 AM MDT 9:32 PM MDT
Moon No Moon Rise 9:08 AM MDT (3/30)
Length of Visible Light 13h 36m
Length of Day
12h 39m
Waning Gibbous, 86% of the Moon is Illuminated
Mar 30
Waning Gibbous
Apr 2
Last Quarter
Apr 10
New
Apr 18
First Quarter
Apr 25
Full

Hourly Weather History & Observations

Time (MDT) Temp. Windchill Dew Point Humidity Pressure Visibility Wind Dir Wind Speed Gust Speed Precip Events Conditions
12:53 AM 48.0 °F - 28.9 °F 48% 30.11 in 10.0 mi SSW 10.4 mph - N/A   Clear
1:53 AM 46.0 °F 40.6 °F 28.9 °F 51% 30.12 in 10.0 mi SW 11.5 mph - N/A   Clear
2:53 AM 39.0 °F 33.4 °F 30.0 °F 70% 30.14 in 10.0 mi West 8.1 mph - N/A   Clear
3:53 AM 37.0 °F 31.0 °F 30.0 °F 76% 30.16 in 10.0 mi WSW 8.1 mph - N/A   Clear
4:53 AM 36.0 °F 29.6 °F 28.9 °F 76% 30.16 in 10.0 mi SSW 8.1 mph - N/A   Clear
5:53 AM 34.0 °F 29.8 °F 28.9 °F 82% 30.18 in 10.0 mi SSW 4.6 mph - N/A   Clear
6:53 AM 37.0 °F 34.5 °F 28.9 °F 73% 30.18 in 10.0 mi SSW 3.5 mph - N/A   Partly Cloudy
7:53 AM 35.1 °F 32.2 °F 28.9 °F 78% 30.22 in 10.0 mi WNW 3.5 mph - N/A   Partly Cloudy
8:53 AM 43.0 °F 40.3 °F 32.0 °F 65% 30.22 in 10.0 mi SW 4.6 mph - N/A   Partly Cloudy
9:53 AM 46.9 °F - 33.1 °F 59% 30.22 in 10.0 mi WSW 5.8 mph - N/A   Partly Cloudy
10:53 AM 50.0 °F - 32.0 °F 50% 30.21 in 10.0 mi WSW 6.9 mph - N/A   Partly Cloudy
11:53 AM 54.0 °F - 33.1 °F 45% 30.20 in 10.0 mi West 4.6 mph - N/A   Partly Cloudy
12:53 PM 57.0 °F - 27.0 °F 32% 30.19 in 10.0 mi Variable 3.5 mph - N/A   Partly Cloudy
1:53 PM 57.9 °F - 26.1 °F 30% 30.19 in 10.0 mi Variable 5.8 mph - N/A   Partly Cloudy
2:53 PM 60.1 °F - 26.1 °F 27% 30.19 in 10.0 mi Variable 3.5 mph - N/A   Partly Cloudy
3:53 PM 61.0 °F - 26.1 °F 26% 30.17 in 10.0 mi Variable 3.5 mph - N/A   Partly Cloudy
4:53 PM 63.0 °F - 26.1 °F 25% 30.15 in 10.0 mi ENE 6.9 mph - N/A   Partly Cloudy
5:53 PM 61.0 °F - 26.1 °F 26% 30.15 in 10.0 mi Calm Calm - N/A   Partly Cloudy
6:53 PM 60.1 °F - 26.1 °F 27% 30.13 in 10.0 mi Calm Calm - N/A   Clear
7:53 PM 55.0 °F - 27.0 °F 34% 30.14 in 10.0 mi SE 4.6 mph - N/A   Clear
8:53 PM 48.9 °F - 28.0 °F 44% 30.14 in 10.0 mi Calm Calm - N/A   Clear
9:53 PM 45.0 °F 42.6 °F 27.0 °F 49% 30.14 in 10.0 mi South 4.6 mph - N/A   Clear
10:53 PM 43.0 °F 41.3 °F 28.0 °F 56% 30.14 in 10.0 mi East 3.5 mph - N/A   Clear
11:53 PM 41.0 °F - 26.1 °F 55% 30.13 in 10.0 mi Calm Calm - N/A   Clear